• Join FlightAware (Why Join?)
  • Login
  • US Flag 
12:59PM EST


 

Airport Tracker/Info


-or-


 

Live Flight TrackerFlight Track Log ✈ TSC419 ✈ 11-May-2013 ✈ CYYC - CYEG

Flight Track Log - Related Links

Times and Time Zones

All times are in EDT time to prevent confusion due to time zone crossing. See the TSC419 flight status page for this flight to view local times or setup timezone preferences in your user account.

Time Position Orientation Groundspeed Altitude Reporting Facility
EDT Latitude Longitude Course Direction KTS MPH feet Rate Location/Type
12:38AM 51.1310 -114.0470 303° West 125 144 5,000  Level FlightAware
12:38AM 51.1390 -114.0650 305° West 120 138 5,800 1,800 Climbing FlightAware
12:38AM 51.1450 -114.0770 309° West 126 145 6,200 1,650 Climbing FlightAware
12:39AM 51.1530 -114.0960 304° West 135 155 6,900 1,500 Climbing FlightAware
12:39AM 51.1630 -114.1050 331° Northwest 151 174 7,200 933 Climbing FlightAware
12:40AM 51.1880 -114.1060 359° North 207 238 7,600 1,100 Climbing FlightAware
12:40AM 51.2230 -114.1070 359° North 255 293 8,300 1,500 Climbing FlightAware
12:40AM 51.2340 -114.1070 360° North 275 316 8,600 2,509 Climbing FlightAware
12:41AM 51.2940 -114.1080 359° North 310 357 10,600 2,047 Climbing FlightAware
12:42AM 51.3540 -114.1100 359° North 358 412 11,500 2,400 Climbing FlightAware
12:42AM 51.4340 -114.1070 North 373 429 14,000 3,176 Climbing FlightAware
12:43AM 51.5040 -114.0950 North 390 449 16,000 2,700 Climbing FlightAware
12:44AM 51.5730 -114.0850 North 402 463 17,600 3,176 Climbing FlightAware
12:44AM 51.6600 -114.0720 North 384 442 20,500 3,106 Climbing FlightAware
12:45AM 51.7310 -114.0610 North 391 450 22,000 1,125 Climbing FlightAware
12:46AM 51.8030 -114.0500 North 384 442 22,000  Level FlightAware
12:47AM 51.8870 -114.0370 North 386 444 22,000  Level FlightAware
12:47AM 51.9610 -114.0260 North 387 445 22,000 -353 Level FlightAware
12:48AM 52.0400 -114.0140 North 371 427 21,500 -776 Descending FlightAware
12:49AM 52.1090 -114.0030 North 353 406 20,900 -975 Descending FlightAware
12:49AM 52.1750 -113.9930 North 354 407 20,200 -1,059 Descending FlightAware
12:50AM 52.2510 -113.9810 North 358 412 19,400 -988 Descending FlightAware
12:51AM 52.3140 -113.9710 North 353 406 18,800 -918 Descending FlightAware
12:51AM 52.3840 -113.9600 North 342 394 18,100 -988 Descending FlightAware
12:52AM 52.4530 -113.9490 North 339 390 17,400 -1,550 Descending FlightAware
12:53AM 52.5830 -113.9290 North 336 387 15,000 -1,742 Descending FlightAware
12:55AM 52.7000 -113.9100 North 336 387 12,900 -1,613 Descending FlightAware
12:56AM 52.8280 -113.8890 North 336 387 10,700 -1,392 Descending FlightAware
12:57AM 52.8920 -113.8790 North 323 372 10,000 -831 Descending FlightAware
12:57AM 52.9290 -113.8730 North 305 351 9,800 -764 Descending FlightAware
12:58AM 52.9710 -113.8660 North 305 351 9,300 -1,200 Descending FlightAware
12:58AM 52.9920 -113.8630 North 304 350 8,900 -1,350 Descending FlightAware
12:58AM 53.0290 -113.8570 North 294 338 8,400 -1,200 Descending FlightAware
12:59AM 53.0480 -113.8540 North 294 338 8,100 -1,200 Descending FlightAware
12:59AM 53.0890 -113.8470 North 292 336 7,500 -1,200 Descending FlightAware
12:59AM 53.1110 -113.8440 North 289 333 7,200 -1,200 Descending FlightAware
01:00AM 53.1440 -113.8380 North 293 337 6,700 -1,050 Descending FlightAware
01:00AM 53.1630 -113.8350 North 289 333 6,500 -1,067 Descending FlightAware
01:01AM 53.2040 -113.8290 North 278 320 5,900 -1,418 Descending FlightAware
01:01AM 53.2360 -113.8230 North 292 336 5,200 -1,371 Descending FlightAware
01:01AM 53.2480 -113.8210 North 291 335 5,100 -171 Descending FlightAware
01:02AM 53.2810 -113.8170 North 291 335 5,100 -312 Level FlightAware
01:02AM 53.3167 -113.8500 North 250 288 4,700 -375 Descending Edmonton Center
01:03AM 53.3500 -113.7667 56° Northeast 180 207 4,400 -400 Descending Edmonton Center
01:04AM 53.3333 -113.7000 113° Southeast 150 173 3,900 -650 Descending Edmonton Center
01:05AM 53.3000 -113.6667 149° Southeast 130 150 3,100 -700 Descending Edmonton Center
01:06AM 53.2833 -113.6333 130° Southeast 120 138 2,500 -400 Descending Edmonton Center
01:07AM 53.2667 -113.5833 119° Southeast 120 138 2,300 -200 Descending Edmonton Center